Location: Ch?enovice
(49.7164°N, 15.2160°E)
Time: 21:25:24
(UTC+00:00)

Resurs 1-4 Rocket - Pass Details

Date: 23 May 2024
Orbit: 798 x 813 km, 98.7° (Epoch: 21 June)

Event Time Altitude Azimuth Distance (km) Brightness Sun altitude
Rises 02:04:44 0° 8° (N) 3,320 6.3 -8.2°
Reaches altitude 10° 02:07:14 10° 0° (N) 2,385 5.3 -7.9°
Maximum altitude 02:11:57 35° 297° (WNW) 1,282 3.0 -7.3°
Drops below altitude 10° 02:16:38 10° 233° (SW) 2,371 3.9 -6.8°
Enters shadow 02:17:05 - 231° (SW) 2,532 4.0 -6.7°
